This demonstration page uses our WeatherBlox Daily Observations layout. Learn more.

Left ArrowRight Arrow

Hourly Observations for July 19, 2015

Temp ( °F °C ) Dew Point ( °F °C ) Humidity (%) Winds ( mph kmh ) Pressure ( in mb ) Visibility ( mi km ) Precip ( " mm )
12:51 am 00:51 Cloudy 79 26.1 62 16.7 56 56 WNW 14 22 29.92 1013 10 16.0934 N/A
1:51 am 01:51 Mostly Cloudy 73 22.8 66 18.9 79 79 NW 12 19 29.93 1014 10 16.0934 0.03 0.762
2:51 am 02:51 Partly Cloudy 73 22.8 65 18.3 76 76 WNW 14 22 29.93 1014 10 16.0934 N/A
3:51 am 03:51 Clear 70 21.1 64 17.8 82 82 W 13 20 29.95 1014 10 16.0934 N/A
4:51 am 04:51 Mostly Cloudy 70 21.1 64 17.8 82 82 N 6 9 29.97 1015 10 16.0934 N/A
5:51 am 05:51 Partly Cloudy 70 21.1 64 17.8 82 82 WNW 6 9 29.98 1015 10 16.0934 N/A
6:51 am 06:51 Cloudy 76 24.4 62 16.7 62 62 NNW 6 9 29.97 1015 10 16.0934 N/A
7:51 am 07:51 Mostly Cloudy 80 26.6 76 24.6 89 89 WSW 9 15 29.86 1011 10 16.0934 N/A
8:51 am 08:51 Cloudy 77 25 63 17.2 62 62 W 7 11 29.99 1016 10 16.0934 N/A
9:51 am 09:51 Cloudy 79 26.1 63 17.2 58 58 WNW 7 11 29.98 1015 10 16.0934 N/A
10:51 am 10:51 Sunny 83 28.3 61 16.1 48 48 WNW 7 11 29.98 1015 10 16.0934 N/A
11:51 am 11:51 Sunny 71 21.7 39 3.9 31 31 NW 8 13 30.09 1019 10 16.0934 N/A
12:51 pm 12:51 Sunny 89 31.7 57 13.9 34 34 W 12 19 29.93 1014 10 16.0934 N/A
1:51 pm 13:51 Mostly Sunny 86 30 60 15.6 42 42 W 16 26 29.94 1014 10 16.0934 N/A
2:51 pm 14:51 Partly Cloudy 90 32.2 60 15.6 37 37 W 10 17 29.91 1013 10 16.0934 N/A
3:51 pm 15:51 Sunny 92 33.3 57 13.9 31 31 NW 12 19 29.88 1012 10 16.0934 N/A
4:51 pm 16:51 Sunny 91 32.8 56 13.3 31 31 WNW 10 17 29.87 1011 10 16.0934 N/A
5:51 pm 17:51 Sunny 91 32.8 57 13.9 32 32 WNW 13 20 29.85 1011 10 16.0934 N/A
6:51 pm 18:51 Sunny 89 31.7 57 13.9 34 34 WNW 14 22 29.85 1011 10 16.0934 N/A
7:51 pm 19:51 Clear 86 30 55 12.8 35 35 NW 10 17 29.88 1012 10 16.0934 N/A
8:51 pm 20:51 Clear 84 28.9 59 15 43 43 NW 9 15 29.9 1013 10 16.0934 N/A
9:51 pm 21:51 Clear 83 28.3 59 15 44 44 NW 14 22 29.92 1013 10 16.0934 N/A
10:51 pm 22:51 Clear 85 29.6 76 24.6 75 75 NW 10 17 29.8 1009 10 16.0934 N/A
11:51 pm 23:51 Clear 79 26.1 61 16.1 54 54 NW 12 19 29.92 1013 10 16.0934 N/A

Powered by AerisWeather